, NV

(GMT )
Las Vegas

Weather History for KBJN - October, 2013

Change the Weather History Date:

Wednesday, October 9, 2013

  Actual Average Record
Temperature  
Mean Temperature 44 °F -  
Max Temperature 50 °F - - ()
Min Temperature 37 °F - - ()
Degree Days  
Heating Degree Days 20    
Moisture  
Dew Point 26 °F    
Average Humidity 50    
Maximum Humidity 96    
Minimum Humidity 22    
Precipitation  
Precipitation 0.00 in - - ()
Sea Level Pressure  
Sea Level Pressure 29.86 in    
Wind  
Wind Speed 9 mph (South)    
Max Wind Speed 22 mph    
Max Gust Speed 26 mph    
Visibility 10 miles    
Events Rain    
T = Trace of Precipitation, MM = Missing Value Source: NWS Daily Summary

Daily Weather History Graph

Daily Weather History Graph

Search for Another Location

Airport or City:

Trip Planner

Search our weather history database for the weather conditions in past years. The results will help you decide how hot, cold, wet, or windy it might be!

Date:

Astronomy

Oct. 09, 2013 Rise Set
Actual Time 6:48 AM PDT 6:15 PM PDT
Civil Twilight 6:21 AM PDT 6:41 PM PDT
Nautical Twilight 5:51 AM PDT 7:12 PM PDT
Astronomical Twilight 5:21 AM PDT 7:42 PM PDT
Moon 11:43 AM PDT (10/9) 9:59 PM PDT (10/9)
Length of Visible Light 12h 20m
Length of Day
11h 27m
Waxing Crescent, 26% of the Moon is Illuminated
Oct 9
Waxing Crescent
Oct 11
First Quarter
Oct 18
Full
Oct 26
Last Quarter
Nov 3
New

Hourly Weather History & Observations

Time (PDT) Temp. Windchill Dew Point Humidity Pressure Visibility Wind Dir Wind Speed Gust Speed Precip Events Conditions
12:56 AM 46.9 °F - 10.0 °F 22% 30.01 in 10.0 mi WSW 6.9 mph - N/A   Clear
1:56 AM 46.9 °F - 12.9 °F 25% 29.99 in 10.0 mi SW 3.5 mph - N/A   Clear
3:56 AM 46.0 °F 43.9 °F 16.0 °F 30% 29.94 in 10.0 mi SW 4.6 mph - N/A   Clear
4:56 AM 50.0 °F - 17.1 °F 27% 29.93 in 10.0 mi SSW 4.6 mph - N/A   Clear
5:56 AM 48.9 °F - 17.1 °F 28% 29.92 in 10.0 mi WSW 3.5 mph - N/A   Clear
6:56 AM 46.9 °F - 19.0 °F 33% 29.92 in 10.0 mi SW 8.1 mph - N/A   Partly Cloudy
7:56 AM 46.9 °F - 21.9 °F 37% 29.93 in 10.0 mi South 9.2 mph - N/A   Clear
8:56 AM 48.0 °F - 25.0 °F 41% 29.93 in 10.0 mi South 9.2 mph - N/A   Clear
9:56 AM 48.0 °F - 26.1 °F 42% 29.95 in 10.0 mi South 11.5 mph - N/A   Clear
10:56 AM 48.0 °F - 28.0 °F 46% 29.95 in 10.0 mi South 9.2 mph - N/A   Clear
1:08 PM 50.0 °F - 23.0 °F 35% 29.65 in 10.0 mi South 18.4 mph - N/A   Scattered Clouds
1:56 PM 50.0 °F - 19.9 °F 31% 29.95 in 10.0 mi SE 21.9 mph 26.5 mph N/A   Mostly Cloudy
2:49 PM 48.2 °F - 23.0 °F 37% 29.66 in 10.0 mi SE 17.3 mph 25.3 mph N/A   Mostly Cloudy
2:56 PM 48.9 °F - 23.0 °F 36% 29.96 in 10.0 mi SE 17.3 mph 25.3 mph N/A   Mostly Cloudy
3:00 PM 48.2 °F - 23.0 °F 37% 29.66 in 10.0 mi SSE 13.8 mph 25.3 mph N/A   Mostly Cloudy
3:56 PM 48.9 °F - 23.0 °F 36% 29.96 in 10.0 mi South 11.5 mph - N/A   Mostly Cloudy
4:16 PM 48.2 °F - 24.8 °F 40% 29.66 in 10.0 mi South 13.8 mph - N/A   Mostly Cloudy
4:23 PM 48.2 °F - 24.8 °F 40% 29.66 in 10.0 mi South 16.1 mph - N/A   Mostly Cloudy
4:34 PM 48.2 °F - 26.6 °F 43% 29.66 in 10.0 mi South 17.3 mph - N/A   Mostly Cloudy
4:56 PM 46.0 °F 39.3 °F 30.0 °F 54% 29.97 in 10.0 mi South 16.1 mph - N/A   Overcast
5:36 PM 44.6 °F 38.8 °F 30.2 °F 57% 29.68 in 10.0 mi SSW 11.5 mph - N/A   Overcast
5:56 PM 44.1 °F 38.6 °F 30.0 °F 58% 29.98 in 10.0 mi SSW 10.4 mph - N/A   Mostly Cloudy
6:04 PM 44.6 °F 39.7 °F 30.2 °F 57% 29.69 in 10.0 mi SW 9.2 mph - N/A   Overcast
6:56 PM 43.0 °F 38.2 °F 32.0 °F 65% 30.00 in 10.0 mi South 8.1 mph - N/A   Overcast
7:56 PM 41.0 °F 36.4 °F 34.0 °F 76% 30.01 in 10.0 mi SSW 6.9 mph - 0.00 in Rain Light Rain
8:45 PM 39.2 °F - 33.8 °F 81% 29.72 in - Calm Calm - 0.00 in   Mostly Cloudy
8:54 PM 39.2 °F 37.0 °F 33.8 °F 81% 29.73 in 10.0 mi ESE 3.5 mph - 0.00 in   Overcast
8:56 PM 39.0 °F 35.7 °F 34.0 °F 82% 30.02 in 10.0 mi ESE 4.6 mph - 0.00 in   Mostly Cloudy
9:12 PM 39.2 °F - 33.8 °F 81% 29.73 in - Calm Calm - N/A   Overcast
9:19 PM 39.2 °F - 33.8 °F 81% 29.73 in 10.0 mi Calm Calm - N/A   Overcast
11:56 PM 37.0 °F 31.6 °F 36.0 °F 96% 30.04 in 10.0 mi SSE 6.9 mph - 0.00 in Rain Light Rain